Regional Weather Roundup
Issued by NWS

Home | Current Version | Previous Version | Text Only | Print | Product List | Glossary Off
Versions: 1 2 3 4 5 6 7 8 9 10 11 12 13 14 15 16 17 18 19 20 21 22 23 24 25 26 27 28 29 30 31 32 33 34 35 36 37 38 39 40 41 42 43 44 45 46 47 48 49 50

510
ASUS43 KMPX 271901
RWRMN
WEATHER ROUNDUP FOR MINNESOTA
NATIONAL WEATHER SERVICE TWIN CITIES/CHANHASSEN MN
200 PM CDT SAT AUG 27 2016


NOTE: "FAIR" INDICATES FEW OR NO CLOUDS BELOW 12,000 FEET WITH NO
SIGNIFICANT WEATHER AND/OR OBSTRUCTIONS TO VISIBILITY. N/A MEANS
CURRENT SKY AND/OR WEATHER CONDITIONS ARE NOT AVAILABLE.

MNZ060>063-068>070-272000-
   Twin Cities Metro

CITY           SKY/WX    TMP DP  RH WIND       PRES   REMARKS
TWIN CITIES    CLOUDY    66  60  81 SE9       30.01F
ST PAUL        CLOUDY    65  61  87 SE13      30.01F
CRYSTAL        CLOUDY    66  59  78 SE13      30.00R
BLAINE         CLOUDY    70  64  83 SE9       30.00S
LAKEVILLE      CLOUDY    63  63 100 SE5       30.02R FOG
EDEN PRAIRIE   CLOUDY    67  61  81 SE9       30.00R
LAKEVILLE      CLOUDY    63  63 100 SE5       30.02R FOG
SOUTH ST PAUL  CLOUDY    64  62  93 SE5       30.01S FOG
LAKE ELMO      CLOUDY    64  63  94 SE9       30.02S FOG
$$
MNZ001>005-007-008-013>017-022>024-027-028-272000-
   Northwest Minnesota

CITY           SKY/WX    TMP DP  RH WIND       PRES   REMARKS
BEMIDJI        CLOUDY    65  58  78 SE6       30.00S
HALLOCK        PTSUNNY   66  57  72 S16       29.92S
ROSEAU         CLOUDY    61  55  82 S10       29.95F
WARROAD        DRIZZLE   59  55  88 S5        29.97R
THIEF RVR FALL LGT RAIN  58  55  90 S9        29.95F
CROOKSTON      CLOUDY    59  57  94 S12       29.95S
FOSSTON        HVY RAIN  55  54  94 E5        30.00F
DETROIT LAKES  MOSUNNY   72  55  56 S15G21    29.97S
MOORHEAD       LGT RAIN  64  63  94 W6        29.95R
PARK RAPIDS    CLOUDY    69  55  60 SW8       29.99F
MAHNOMEN       CLOUDY    60  56  85 NE13      29.96F
$$
MNZ006-009>011-018-025>026-272000-
   North Central Minnesota

CITY           SKY/WX    TMP DP  RH WIND       PRES   REMARKS
BAUDETTE       RAIN      58  56  93 S7        29.98F FOG
FLAG ISLAND    DRIZZLE   61  57  88 S7        29.94F
INTL FALLS     LGT RAIN  66  56  70 S8        30.01R
WASKISH        CLOUDY    61  55  82 NW7       30.01R
BIG FORK       CLOUDY    64  57  77 CALM      30.02S
LONGVILLE      CLOUDY    70  61  73 S7        29.99F
GRAND RAPIDS   CLOUDY    69  56  62 S9        30.02F
CRANE LAKE     CLOUDY    61  59  94 CALM      30.05S
ORR            DRIZZLE   63  57  82 CALM      30.02S
COOK           CLOUDY    64  55  72 S3        30.04S
WALKER         CLOUDY    66  57  72 S7        29.99F
$$
MNZ012-019>021-037-272000-
   Northeast Minnesota

CITY           SKY/WX    TMP DP  RH WIND       PRES   REMARKS
DULUTH         CLOUDY    63  58  83 SE3       30.05R
ELY            CLOUDY    66  52  59 S6        30.05R
HIBBING        CLOUDY    65  53  65 VRB5      30.04S
EVELETH        CLOUDY    65  53  64 S7        30.06R
DULUTH HARBOR  CLOUDY    64  61  88 NE7       30.05R
TWO HARBORS    CLOUDY    66  61  82 CALM      30.04R
SILVER BAY     CLOUDY    64  59  82 CALM      30.04F
G MARAIS ARPRT LGT RAIN  61  54  77 SE3       30.10F
$$
MNZ029>031-032-039>041-046>048-054>057-064-272000-
   West Central Minnesota

CITY           SKY/WX    TMP DP  RH WIND       PRES   REMARKS
FERGUS FALLS   SUNNY     72  57  60 S18G24    29.97F
WHEATON        MOSUNNY   73  63  68 SE13      29.97F
MORRIS         PTSUNNY   72  57  60 S13       29.97F
ALEXANDRIA     CLOUDY    69  56  62 S13       30.00F
ELBOW LAKE     CLOUDY    70  59  69 S12       29.98S
WADENA         PTSUNNY   70  55  60 S8        29.99R
GLENWOOD       MOSUNNY   66  57  72 SE7       30.01S
APPLETON       CLOUDY    68  57  68 S7        29.98F
BENSON         CLOUDY    66  57  72 S7        29.99F
ORTONVILLE     CLOUDY    68  59  73 S12       29.97F
MADISON        MOSUNNY   66  61  82 S9        29.98F
WILLMAR        CLOUDY    66  61  82 SE5       30.01S
$$
MNZ033>034-036-042>043-049>051-058-059-272000-
   Central Minnesota

CITY           SKY/WX    TMP DP  RH WIND       PRES   REMARKS
ST CLOUD       CLOUDY    65  59  81 SE8       30.01S
SAUK CENTRE    CLOUDY    68  57  68 SE10      29.99F
PAYNESVILLE    CLOUDY    66  56  69 SE8       30.01F
AITKIN         PTSUNNY   70  55  60 SE8       30.00F
PINE RIVER     MOSUNNY   70  57  64 S10       30.02F
BRAINERD       CLOUDY    68  57  68 SE9       30.00F
STAPLES        PTSUNNY   70  54  56 S10G16    29.99S
LONG PRAIRIE   CLOUDY    68  55  64 SE9       30.00F
LITTLE FALLS   CLOUDY    66  55  68 SE8       30.01F
LITCHFIELD     CLOUDY    66  63  88 SE3       30.01S
BUFFALO        CLOUDY    65  61  84 SE5       30.02S
MAPLE LAKE     CLOUDY    64  61  90 CALM      30.02F FOG
HUTCHINSON     CLOUDY    66  63  91 SE7       30.01S
$$
MNZ037-044-045-052-053-272000-
   East Central Minnesota

CITY           SKY/WX    TMP DP  RH WIND       PRES   REMARKS
PRINCETON      HVY RAIN  64  61  88 CALM      30.02F
MORA           CLOUDY    64  59  82 SE3       30.04F
CAMBRIDGE      RAIN      64  57  77 CALM      30.01R
RUSH CITY      LGT RAIN  64  60  88 CALM      30.04R
MOOSE LAKE     CLOUDY    64  59  82 CALM      30.02F
HINCKLEY       LGT RAIN  64  59  82 CALM      30.03S
CLOQUET        CLOUDY    63  57  82 CALM      30.05S
MCGREGOR       CLOUDY    70  57  64 SE10      30.02F
$$
MNZ071>073-080-081-089-090-097-098-272000-
   Southwest Minnesota

CITY           SKY/WX    TMP DP  RH WIND       PRES   REMARKS
MONTEVIDEO     CLOUDY    68  61  77 S7        30.01F
GRANITE FALLS  CLOUDY    68  62  82 SE7       30.01S
CANBY          CLOUDY    69  61  76 E7        29.99F
MARSHALL       CLOUDY    68  61  78 SW7       30.00S
REDWOOD FALLS  CLOUDY    65  60  84 SE6       30.00S
OLIVIA         CLOUDY    68  61  77 S8        29.99S
PIPESTONE      CLOUDY    68  61  77 SW6       30.00F
WINDOM         CLOUDY    70  63  78 W6        30.01R
WORTHINGTON    CLOUDY    67  63  87 SW8       30.02S
JACKSON          N/A     70  61  73 S7        30.02S
TRACY          CLOUDY    68  62  81 SW3       30.00F
SLAYTON        CLOUDY    66  61  82 W6        30.01F
$$
MNZ065>067-074>077-082>085-091>093-272000-
   South Central Minnesota

CITY           SKY/WX    TMP DP  RH WIND       PRES   REMARKS
MANKATO        CLOUDY    64  61  88 S5        30.01S
NEW ULM          N/A     66  63  88 S7        30.00S
ST JAMES       CLOUDY    63  57  82 SW3       30.01S
FAIRMONT       CLOUDY    69  64  84 W8        30.01S
GLENCOE        CLOUDY    65  64  99 SE6       30.00F FOG
FARIBAULT      CLOUDY    64  64 100 SE5       30.02R
OWATONNA       CLOUDY    66  63  88 S6        30.02R
WASECA         CLOUDY    63  61  94 SW6       30.03R FOG
ALBERT LEA     CLOUDY    66  64  94 CALM      30.02R
$$
MNZ078>079-086>088-094>096-272000-
   Southeast Minnesota

CITY           SKY/WX    TMP DP  RH WIND       PRES   REMARKS
ROCHESTER      CLOUDY    67  64  90 S5        30.03R
RED WING       CLOUDY    64  63  94 SE3       30.01S FOG
DODGE CENTER   CLOUDY    66  64  94 S7        30.02S
WINONA         CLOUDY    68  63  83 SE5       30.02R
AUSTIN         CLOUDY    66  64  94 SW6       30.02R
PRESTON        CLOUDY    66  62  87 S7        30.03S
$$
ABBREVIATIONS USED IN REMARKS
   TC - TEMPERATURES IN CELSIUS
  WCI - WIND CHILL INDEX
   HX - HEAT INDEX
  VSB - VISIBILITY
$$




USA.gov is the U.S. government's official web portal to all federal, state and local government web resources and services.